Probability
0 0 0 0 0 0 0 0 0 0 0 0 0 0 0 0 0 0 0 0 0 0 0 0 0 0 0 0 0 0 0 0 0 0 0 0 0 0 0 0 0 0 0 0
0 0 0 0 0 0 0 0 0 0 0 0 0 0 0 0 0 0 0 0 0 0 0 0 0 0 0 0 0 0 0 0 0 0 0 0 0 0 0 0 0 0 0 0
0 0 0 0 0 0 0 0 0 0 0 0 0 0 0 0 0 0 0 0 0 0 0 0 0 0 0 0 0 0 0 0 0 0 0 0 0 0 0 0 0 0 0 0
0 0 0 0 0 0 0 0 0 0 0 0 0 0 0 0 0 0 0 0 0 0 0 0 0 0 0 0 0 0 0 0 0 0 0 0 0 0 0 0 0 0 0 0
0 0 0 0 0 0 0 0 0 0 0 0 0 0 0 0 0 0 0 0 0 0 0 0 0 0 0 0 0 0 0 0 0 0 0 0 0 0 0 0 0 0 0 0
0 0 0 0 0 0 0 0 0 0 0 0 0 0 0 0 0 0 0 0 0 0 0 0 0 0 0 0 0 0 0 0 0 0 0 0 0 0 0 0 0 0 0 0
0 0 0 0 0 0 0 0 0 0 0 0 0 0 0 0 0 0 0 0 0 0 0 0 0 0 0 0 0 0 0 0 0 0 0 0 0 0 0 0 0 0 0 0
0 0 0 0 0 0 0 0 0 0 0 0 0 0 0 0 0 0 0 0 0 0 0 0 0 0 0 0 0 0 0 0 0 0 0 0 0 0 0 0 0 0 0 0
0 0 0 0 0 0 0 0 0 0 0 0 0 0 0 0 0 0 0 0 0 0 0 0 0 0 0 0 0 0 0 0 0 0 0 0 0 0 0 0 0 0 0 0
0 0 0 0 0 0 0 0 0 0 0 0 0 0 0 0 0 0 0 0 0 0 0 0 0 0 0 0 0 0 0 0 0 0 0 0 0 0 0 0 0 0 0 0
0 0 0 0 0 0 0 0 0 0 0 0 0 0 0 0 0 0 0 0 0 0 0 0 0 0 0 0 0 0 0 0 0 0 0 0 0 0 0 0 0 0 0 0
0 0 0 0 0 0 0 0 0 0 0 0 0 0 0 0 0 0 0 0 0 0 0 0 0 0 0 0 0 0 0 0 0 0 0 0 0 0 0 0 0 0 0 0
0 0 0 0 0 0 0 0 0 0 0 0 0 0 0 0 0 0 0 0 0 0 0 0 0 0 0 0 0 0 0 0 0 0 0 0 0 0 0 0 0 0 0 0
0 0 0 0 0 0 0 0 0 0 0 0 0 0 0 0 0 0 0 0 0 0 0 0 0 0 0 0 0 0 0 0 0 0 0 0 0 0 0 0 0 0 0 0
0 0 0 0 0 0 0 0 0 0 0 0 0 0 0 0 0 0 0 0 0 0 0 0 0 0 0 0 0 0 0 0 0 0 0 0 0 0 0 0 0 0 0 0
0 0 0 0 0 0 0 0 0 0 0 0 0 0 0 0 0 0 0 0 0 0 0 0 0 0 0 0 0 0 0 0 0 0 0 0 0 0 0 0 0 0 0 0
0 0 0 0 0 0 0 0 0 0 0 0 0 0 0 0 0 0 0 0 0 0 0 0 0 0 0 0 0 0 0 0 0 0 0 0 0 0 0 0 0 0 0 0
0 0 0 0 0 0 0 0 0 0 0 0 0 0 0 0 0 0 0 0 0 0 0 0 0 0 0 0 0 0 0 0 0 0 0 0 0 0 0 0 0 0 0 0
0 0 0 0 0 0 0 0 0 0 0 0 0 0 0 0 0 0 0 0 0 0 0 0 0 0 0 0 0 0 0 0 0 0 0 0 0 0 0 0 0 0 0 0
0 0 0 0 0 0 0 0 0 0 0 0 0 0 0 0 0 0 0 0 0 0 0 0 0 0 0 0 0 0 0 0 0 0 0 0 0 0 0 0 0 0 0 0
0 0 0 0 0 0 0 0 0 0 0 0 0 0 0 0 0 0 0 0 0 0 0 0 0 0 0 0 0 0 0 0 0 0 0 0 0 0 0 0 0 0 0 0
0 0 0 0 0 0 0 0 0 0 0 0 0 0 0 0 0 0 0 0 0 0 0 0 0 0 0 0 0 0 0 0 0 0 0 0 0 0 0 0 0 0 0 0
0 0 0 0 0 0 0 0 0 0 0 0 0 0 0 0 0 0 0 0 0 0 0 0 0 0 0 0 0 0 0 0 0 0 0 0 0 0 0 0 0 0 0 0
0 0 0 0 0 0 0 0 0 0 0 0 0 0 0 0 0 0 0 0 0 0 0 0 0 0 0 0 0 0 0 0 0 0 0 0 0 0 0 0 0 0 0 0
0 0 0 0 0 0 0 0 0 0 0 0 0 0 0 0 0 0 0 0 0 0 0 0 0 0 0 0 0 0 0 0 0 0 0 0 0 0 0 0 0 0 0 0
0 0 0 0 0 0 0 0 0 0 0 0 0 0 0 0 0 0 0 0 0 0 0 0 0 0 0 0 0 0 0 0 0 0 0 0 0 0 0 0 0 0 0 0
0 0 0 0 0 0 0 0 0 0 0 0 0 0 0 0 0 0 0 0 0 0 0 0 0 0 0 0 0 0 0 0 0 0 0 0 0 0 0 0 0 0 0 0
Height
5832 5827 5822 5815 5809 5801 5792 5781 5769 5756 5742 5728 5712 5697 5682 5666 5651 5636 5621 5607 5593 5579 5565 5553 5542 5530 5518 5506 5493 5481 5468 5456 5443 5431 5418 5406 5395 5386 5377 5370 5364 5360 5357 5355
5829 5824 5818 5811 5803 5794 5784 5773 5761 5748 5735 5720 5705 5690 5674 5659 5644 5630 5615 5601 5586 5572 5560 5548 5537 5525 5513 5500 5487 5474 5461 5448 5436 5424 5411 5399 5387 5377 5368 5360 5354 5349 5345 5343
5823 5817 5812 5804 5796 5787 5778 5767 5754 5741 5729 5713 5698 5683 5668 5653 5638 5624 5609 5594 5580 5568 5556 5544 5532 5519 5507 5494 5480 5466 5454 5442 5430 5417 5405 5393 5381 5370 5359 5351 5344 5339 5335 5332
5816 5811 5804 5801 5790 5781 5771 5760 5747 5734 5720 5706 5692 5677 5661 5646 5632 5617 5603 5589 5576 5564 5552 5539 5527 5514 5501 5487 5474 5460 5447 5435 5424 5412 5399 5387 5375 5363 5352 5341 5334 5329 5325 5322
5810 5804 5799 5793 5783 5773 5764 5754 5741 5728 5714 5699 5685 5671 5657 5641 5626 5612 5598 5584 5572 5560 5548 5536 5523 5510 5497 5482 5469 5455 5442 5430 5418 5406 5393 5380 5367 5355 5343 5332 5323 5318 5314 5311
5806 5799 5793 5788 5778 5767 5758 5747 5735 5722 5708 5693 5679 5666 5651 5635 5621 5607 5592 5580 5568 5556 5544 5532 5520 5507 5493 5478 5464 5451 5438 5425 5412 5399 5386 5372 5358 5344 5331 5320 5311 5305 5302 5300
5801 5795 5789 5781 5770 5761 5752 5743 5729 5715 5701 5688 5674 5660 5645 5629 5616 5602 5589 5576 5564 5553 5541 5530 5517 5504 5490 5475 5461 5447 5434 5421 5408 5394 5380 5365 5350 5333 5318 5306 5297 5291 5289 5289
5794 5787 5782 5773 5765 5757 5748 5735 5722 5709 5695 5682 5668 5653 5639 5625 5611 5597 5585 5573 5562 5550 5539 5527 5515 5502 5488 5473 5459 5444 5431 5418 5404 5389 5374 5359 5342 5324 5307 5292 5283 5278 5277 5277
5791 5786 5778 5769 5761 5752 5741 5730 5717 5704 5690 5677 5663 5648 5634 5621 5608 5595 5583 5572 5560 5549 5537 5525 5513 5501 5487 5473 5458 5444 5430 5416 5402 5387 5371 5355 5337 5317 5298 5283 5273 5268 5267 5268
5786 5779 5772 5764 5755 5746 5735 5724 5711 5698 5685 5672 5658 5644 5631 5618 5605 5593 5581 5570 5559 5548 5537 5525 5513 5500 5486 5472 5458 5444 5430 5416 5402 5387 5371 5353 5334 5314 5294 5278 5268 5263 5261 5262
5781 5774 5767 5759 5750 5741 5730 5719 5706 5693 5680 5667 5653 5640 5627 5615 5602 5590 5580 5569 5558 5547 5536 5525 5513 5500 5487 5473 5459 5445 5431 5417 5403 5388 5372 5354 5334 5314 5294 5278 5267 5262 5259 5259
5775 5769 5762 5754 5745 5736 5725 5713 5701 5688 5675 5663 5650 5637 5624 5612 5600 5589 5578 5568 5558 5547 5536 5525 5513 5501 5487 5474 5461 5448 5434 5419 5405 5390 5374 5357 5339 5320 5300 5284 5271 5264 5260 5259
5770 5763 5756 5748 5740 5730 5720 5708 5696 5683 5671 5659 5646 5633 5621 5609 5598 5587 5577 5568 5558 5547 5537 5526 5514 5502 5489 5477 5464 5450 5436 5421 5407 5392 5377 5361 5345 5328 5311 5294 5280 5270 5264 5261
5764 5758 5750 5743 5735 5725 5714 5703 5691 5679 5667 5655 5643 5631 5619 5607 5596 5586 5577 5567 5558 5547 5537 5526 5515 5504 5492 5480 5467 5454 5440 5425 5410 5396 5381 5366 5351 5336 5321 5306 5292 5280 5271 5265
5758 5752 5745 5737 5729 5720 5709 5698 5686 5675 5663 5651 5640 5628 5617 5606 5595 5585 5576 5567 5558 5548 5538 5528 5517 5506 5495 5483 5471 5458 5444 5430 5415 5401 5387 5373 5359 5345 5331 5318 5305 5293 5282 5273
5752 5746 5739 5732 5723 5714 5704 5693 5681 5670 5659 5648 5636 5625 5615 5604 5594 5585 5577 5568 5559 5549 5540 5529 5519 5509 5498 5487 5475 5463 5449 5434 5421 5409 5396 5382 5369 5355 5342 5330 5318 5306 5296 5286
5746 5740 5733 5726 5718 5709 5698 5688 5677 5666 5655 5644 5633 5622 5612 5602 5593 5584 5576 5568 5560 5551 5541 5531 5521 5511 5501 5490 5479 5467 5454 5441 5429 5418 5405 5392 5379 5365 5353 5341 5330 5319 5309 5299
5740 5734 5728 5720 5712 5703 5693 5683 5672 5662 5651 5641 5630 5620 5610 5600 5591 5582 5574 5566 5559 5551 5541 5532 5523 5514 5504 5494 5483 5472 5460 5448 5437 5426 5414 5401 5389 5376 5364 5352 5341 5330 5320 5311
5734 5728 5721 5714 5706 5697 5688 5678 5668 5658 5648 5637 5627 5618 5609 5599 5590 5581 5573 5566 5558 5551 5542 5533 5525 5516 5507 5497 5487 5476 5465 5454 5444 5433 5422 5411 5399 5387 5375 5364 5352 5342 5332 5322
5727 5721 5714 5707 5700 5691 5682 5673 5663 5653 5644 5634 5625 5615 5607 5598 5590 5582 5574 5567 5560 5553 5544 5536 5527 5519 5510 5501 5491 5481 5471 5461 5451 5441 5430 5420 5409 5398 5386 5375 5364 5353 5343 5334
5720 5714 5707 5701 5693 5685 5677 5667 5658 5649 5640 5631 5622 5613 5605 5597 5588 5581 5573 5567 5560 5553 5545 5537 5529 5521 5513 5504 5494 5485 5476 5467 5458 5448 5438 5428 5418 5407 5397 5386 5375 5365 5355 5345
5712 5707 5700 5694 5687 5679 5671 5662 5653 5645 5636 5627 5618 5610 5602 5594 5586 5579 5572 5566 5559 5553 5546 5539 5531 5523 5515 5506 5498 5489 5481 5472 5464 5455 5445 5435 5426 5416 5406 5396 5386 5376 5366 5356
5705 5699 5693 5687 5680 5673 5665 5656 5648 5640 5632 5624 5615 5608 5600 5593 5586 5579 5572 5565 5559 5553 5547 5540 5533 5525 5517 5509 5501 5493 5485 5477 5469 5460 5451 5442 5433 5424 5415 5405 5395 5386 5376 5367
5697 5692 5686 5680 5673 5666 5658 5651 5643 5635 5628 5620 5612 5605 5597 5590 5583 5576 5570 5563 5557 5552 5546 5540 5534 5527 5519 5512 5504 5496 5489 5481 5473 5465 5457 5448 5440 5431 5422 5413 5404 5395 5386 5377
5689 5684 5679 5673 5666 5659 5652 5644 5637 5630 5623 5616 5608 5601 5594 5588 5581 5574 5568 5562 5556 5551 5546 5540 5534 5528 5521 5514 5507 5500 5492 5484 5477 5469 5461 5453 5445 5437 5429 5421 5412 5403 5395 5386
5681 5676 5671 5665 5659 5652 5645 5638 5631 5625 5618 5611 5605 5598 5591 5585 5579 5572 5566 5560 5554 5549 5544 5539 5534 5528 5522 5516 5509 5502 5495 5488 5480 5473 5466 5458 5450 5442 5435 5427 5419 5411 5403 5394
5672 5667 5662 5657 5651 5645 5638 5632 5625 5619 5613 5607 5600 5594 5587 5581 5576 5570 5564 5558 5552 5547 5543 5538 5533 5528 5522 5517 5511 5504 5498 5491 5484 5477 5470 5462 5455 5447 5440 5433 5425 5417 5409 5401
Wind_Speed
27 29 31 35 39 43 47 53 60 66 70 71 73 73 74 72 69 66 65 64 63 60 56 53 52 51 52 54 55 56 55 53 52 52 51 50 47 44 40 37 34 31 31 32
28 30 31 35 39 44 49 56 63 68 71 73 73 73 73 70 67 65 64 63 60 56 53 52 52 52 54 55 56 56 54 52 52 52 52 51 48 44 41 37 33 30 28 28
31 33 34 37 43 47 51 58 65 69 72 73 72 72 71 69 66 64 63 61 57 53 52 52 52 54 55 56 57 56 53 52 52 53 53 53 51 47 43 38 33 30 27 26
34 36 38 41 44 48 53 60 66 70 73 72 72 71 69 66 64 62 61 58 54 51 51 52 53 55 56 58 58 56 53 52 53 53 53 54 54 52 48 41 35 30 26 25
36 38 39 42 46 51 55 61 67 71 72 71 71 70 66 64 63 61 58 55 52 51 51 51 53 55 57 59 58 55 53 53 54 54 55 55 56 56 53 44 36 30 26 24
36 39 42 44 47 52 57 63 67 70 71 70 70 67 66 64 62 59 56 52 51 51 51 51 53 56 58 59 58 55 54 54 55 56 57 57 59 59 55 47 37 30 25 23
36 38 41 44 49 54 58 63 67 69 69 68 68 66 64 62 60 57 53 51 50 51 51 51 53 56 59 59 58 56 54 55 56 57 58 60 62 61 56 47 36 28 24 21
39 41 44 46 49 53 58 63 67 68 67 67 66 64 62 60 58 54 51 50 50 50 51 52 54 57 58 59 58 57 55 55 57 59 60 63 64 63 58 46 32 24 21 18
39 40 42 45 48 53 58 62 66 67 66 66 65 62 60 58 56 52 49 48 49 49 50 52 54 57 58 58 58 57 56 56 57 59 62 65 67 65 58 44 29 20 16 15
38 40 41 44 48 53 58 62 65 65 65 64 63 61 58 57 54 50 47 47 48 48 49 51 54 56 57 58 59 58 56 56 57 59 62 65 69 68 61 45 29 18 12 12
37 39 41 44 48 52 58 62 64 64 64 63 61 59 57 55 52 48 46 46 47 47 48 50 53 55 57 58 59 58 56 56 58 60 61 65 69 71 64 50 34 21 12 8
38 39 41 44 48 52 58 62 63 63 62 61 60 57 56 54 51 46 44 45 46 46 47 49 52 54 56 58 59 58 56 57 58 60 61 63 67 70 68 58 42 28 17 10
37 39 41 44 48 53 58 62 62 61 61 60 58 56 55 53 49 45 43 44 45 45 46 48 51 53 55 56 58 58 58 58 59 60 61 62 65 67 68 64 53 38 26 16
37 39 41 45 48 53 58 61 61 60 59 58 57 55 54 51 47 43 42 42 44 45 46 47 49 51 53 55 56 58 59 60 61 61 62 62 63 65 66 66 61 51 38 26
37 39 42 45 49 53 57 60 60 58 58 56 55 54 53 50 46 42 40 41 42 44 45 46 47 49 51 53 55 57 58 60 61 62 62 62 63 63 63 63 63 60 52 41
38 39 42 45 49 53 57 59 58 57 56 55 54 53 51 49 45 41 39 39 40 42 43 44 46 47 49 51 53 55 57 60 61 61 61 62 62 62 61 60 60 59 58 54
38 40 42 45 49 53 56 58 57 55 55 53 52 51 50 48 45 41 38 38 39 41 42 43 44 45 47 49 51 53 56 58 59 59 60 61 62 62 62 60 58 57 56 55
39 40 43 46 49 52 55 56 55 54 53 52 51 50 49 47 44 41 38 37 38 40 41 42 42 42 45 47 49 51 54 56 57 57 58 60 61 62 62 61 60 57 55 54
39 40 43 46 48 51 54 55 53 52 52 51 50 48 47 46 43 40 37 36 37 38 40 40 40 41 43 44 46 49 51 53 54 55 57 58 59 60 61 61 61 59 57 55
39 41 43 45 48 51 53 53 52 51 50 49 48 47 46 44 42 39 36 35 34 35 37 38 39 40 40 41 43 46 48 50 51 53 54 55 57 58 59 60 60 60 59 57
40 41 43 45 47 50 52 52 50 49 49 48 47 46 45 43 42 40 36 34 33 33 35 36 38 38 39 40 41 43 45 47 48 50 52 53 54 55 56 58 59 59 59 58
40 41 42 44 46 49 50 50 49 47 47 46 46 45 43 42 41 39 36 33 32 32 33 34 36 37 38 39 39 40 42 44 45 47 49 50 52 53 54 55 56 57 58 58
40 41 42 44 46 48 49 49 47 46 46 45 44 43 42 41 39 38 35 33 30 30 31 32 34 35 37 38 38 39 39 41 42 44 45 47 49 50 51 52 53 54 55 56
40 41 42 44 46 48 48 47 45 44 44 44 43 42 41 39 38 37 35 32 29 29 29 30 31 33 35 36 37 38 38 39 40 41 43 44 46 47 49 50 51 52 53 53
41 41 42 44 46 47 47 46 44 43 43 42 42 41 40 38 37 36 34 32 29 28 27 28 29 30 32 34 35 36 37 38 39 40 41 42 43 44 46 47 48 49 50 51
41 41 42 44 45 46 46 44 43 42 41 41 41 40 39 37 36 35 34 31 29 27 26 26 27 28 29 31 33 35 36 37 39 39 40 40 41 42 43 43 45 46 47 48
40 41 42 44 45 45 45 43 41 40 40 40 39 39 38 36 34 34 33 31 29 26 25 25 25 25 27 28 30 32 34 35 37 38 39 40 40 41 41 41 42 43 44 45
Wind_Direction
331 332 330 327 327 330 335 337 339 340 340 341 341 341 340 341 340 339 337 335 335 337 340 341 341 341 340 339 338 338 337 338 338 339 338 336 332 327 322 315 308 297 284 272
330 330 330 326 329 335 338 339 340 341 341 342 342 342 341 341 340 339 337 337 338 341 343 343 342 342 342 341 340 340 340 341 342 343 344 343 340 334 328 321 313 303 291 276
331 332 333 332 336 337 339 340 341 342 342 342 342 342 342 341 341 339 339 339 342 344 345 344 344 344 344 343 343 343 343 343 344 344 345 346 345 341 334 325 317 308 297 282
332 334 336 336 335 338 341 341 341 341 342 343 343 342 342 342 341 340 340 342 345 346 346 346 345 346 346 345 345 345 344 345 345 345 344 344 345 344 339 330 319 310 300 286
332 333 335 335 338 340 341 341 341 341 342 343 343 342 343 343 342 342 343 345 348 349 348 348 348 348 348 347 348 347 347 346 346 346 345 344 343 342 340 333 321 309 299 287
330 332 334 337 338 340 341 341 341 342 343 343 343 343 344 344 343 344 346 348 350 350 350 350 351 351 350 350 350 350 349 349 349 348 347 346 344 342 339 333 322 309 296 285
330 332 333 337 339 340 341 339 341 342 343 343 343 344 345 345 345 346 348 351 351 351 352 353 353 353 353 353 353 352 352 352 351 351 350 349 347 344 340 334 324 308 294 281
333 334 336 337 337 339 339 340 341 342 343 343 344 345 346 346 346 348 351 353 353 353 353 354 355 356 356 356 356 356 355 354 354 354 353 352 351 349 345 339 328 310 293 278
332 332 333 334 336 338 339 340 341 342 343 344 344 346 347 347 348 349 352 354 355 355 355 356 357 358 358 359 359 359 358 358 358 357 357 356 356 355 353 348 338 319 295 277
330 330 332 334 336 338 339 340 341 342 343 344 345 347 348 348 349 351 354 356 357 357 357 358 358 359 1 2 2 2 1 1 1 1 0 0 1 2 1 358 353 339 309 281
329 329 331 333 336 338 339 340 341 343 344 345 346 348 349 349 350 353 356 357 358 359 359 360 0 2 4 5 5 4 4 4 5 5 4 5 6 8 8 8 6 360 342 304
327 328 330 333 335 337 339 340 342 343 344 345 347 348 350 350 352 354 356 359 360 0 1 2 2 4 6 8 7 7 8 9 9 9 9 10 11 13 14 15 15 12 6 348
324 326 329 331 333 336 338 340 342 343 344 346 348 349 350 351 353 354 357 360 1 2 2 3 5 7 8 9 9 10 11 13 13 13 13 14 15 17 19 21 22 21 18 12
323 325 328 330 332 335 337 339 342 343 345 346 348 350 351 352 353 355 357 360 2 3 4 5 7 8 10 10 11 12 14 16 16 16 17 17 18 20 22 24 26 27 26 23
321 324 326 329 331 334 337 339 342 343 345 347 349 350 352 353 354 355 357 360 3 4 6 7 8 9 11 12 12 13 16 18 19 19 20 20 21 22 23 25 28 30 31 31
319 322 325 328 331 333 336 339 342 343 345 347 349 350 352 353 354 355 357 360 3 5 7 8 9 10 12 14 14 15 17 20 21 21 22 23 24 25 26 27 28 31 33 34
317 320 323 327 329 332 336 339 341 343 345 347 349 350 352 353 354 354 356 359 2 5 8 10 11 11 13 15 15 16 19 21 22 22 23 25 26 28 28 29 29 31 32 34
315 318 321 325 328 332 335 338 340 342 345 347 348 350 351 352 353 354 355 358 1 5 8 11 11 11 13 15 16 17 19 22 23 23 24 26 27 29 30 31 31 31 31 33
314 317 320 324 328 331 334 337 339 342 344 346 348 350 351 352 353 354 354 356 360 3 7 11 11 12 13 14 16 18 20 21 22 23 24 26 27 29 31 32 32 32 32 33
313 316 320 324 327 330 333 336 338 341 343 345 347 349 350 352 353 353 354 355 357 1 6 10 11 12 12 13 16 19 20 21 22 23 24 25 26 28 30 32 33 33 33 33
313 316 319 323 327 329 332 334 337 340 343 344 346 347 349 351 352 352 353 354 356 0 5 9 11 12 12 13 16 19 20 21 22 22 23 25 26 27 29 30 32 33 33 33
312 315 319 323 326 328 331 333 336 339 341 343 345 346 347 349 350 351 351 352 355 359 3 7 10 12 13 15 17 18 19 19 20 21 23 24 25 26 27 29 30 31 32 33
310 314 318 322 325 327 329 332 335 337 340 341 343 345 346 347 349 350 350 351 353 356 360 4 8 11 14 16 17 18 18 18 19 20 22 23 24 25 25 27 28 29 30 31
309 312 317 320 323 325 328 330 333 336 338 340 341 343 343 345 347 348 349 349 351 354 357 0 5 9 13 16 17 18 18 19 19 19 20 21 23 23 24 25 26 27 28 29
307 311 315 318 321 323 326 328 331 334 336 338 339 341 341 342 344 346 347 348 348 350 353 357 1 6 10 14 17 19 20 20 20 20 19 20 21 22 22 22 23 24 25 26
306 309 313 316 319 321 324 326 329 331 334 335 337 339 339 339 342 344 345 346 346 347 348 352 356 1 5 9 13 16 18 20 21 20 19 19 20 20 20 20 21 22 22 23
305 308 311 314 317 319 321 324 326 329 331 333 334 336 336 336 338 341 342 343 344 343 343 346 350 354 358 2 6 10 13 16 18 19 19 18 18 18 18 18 18 19 20 21